Date String (YYYY-MM-DD hh:mm:ss) UTC,Instrument flags,Ambient pressure (hPa),Sample flow (lpm),Bypass flow (lpm),Sample temperature (°C),Ambient temperature (°C),ASC tube jacket temperature (°C),LED temperature (°C),Box temperature (°C),Sample RH (%),Span deviation,Mass concentration (μg/m³),Mass concentration (μg/m³),Mass concentration (μg/m³)
DateTimeUTC,F1_M11,P_M11,Q1_M11,Q2_M11,T1_M11,T2_M11,T3_M11,T4_M11,T5_M11,U1_M11,ZSPAN_M11,X2_M11,X0_M11,X1_M11
2023-02-20 01:00:00,,0816.8,5.00,0.00,21.9,20.2,00.0,30.9,23.6,08.9,0000.0,0002.22,0004.93,0001.28
2023-02-20 01:01:00,,0816.9,5.01,0.00,21.9,20.2,00.0,30.9,23.6,08.9,0000.0,0002.22,0004.91,0001.29
2023-02-20 01:02:00,,0816.9,5.00,0.00,21.9,20.2,00.0,30.9,23.6,08.9,0000.0,0002.24,0005.04,0001.29
2023-02-20 01:03:00,,0816.7,5.00,0.00,21.9,20.2,00.0,30.9,23.6,09.0,0000.0,0002.23,0005.01,0001.28
2023-02-20 01:04:00,,0816.7,5.00,0.00,21.8,20.1,00.0,30.9,23.5,08.9,0000.0,0002.15,0004.69,0001.28
2023-02-20 01:05:00,,0816.8,5.00,0.00,21.8,20.0,00.0,30.8,23.4,08.8,0000.0,0002.15,0004.42,0001.28
2023-02-20 01:06:00,,0816.9,5.00,0.00,21.8,20.0,00.0,30.8,23.4,08.8,0000.0,0002.14,0004.29,0001.26
2023-02-20 01:07:00,,0816.8,4.99,0.00,21.8,20.0,00.0,30.8,23.4,09.1,0000.0,0002.14,0004.27,0001.26
2023-02-20 01:08:00,,0816.7,5.02,0.00,21.7,19.9,00.0,30.8,23.3,09.3,0000.0,0002.15,0004.27,0001.27
2023-02-20 01:09:00,,0816.4,5.01,0.00,21.7,19.8,00.0,30.8,23.2,09.2,0000.0,0002.17,0004.48,0001.28
2023-02-20 01:10:00,,0816.7,4.99,0.00,21.6,19.6,00.0,30.7,23.2,09.2,0000.0,0002.10,0004.31,0001.26
2023-02-20 01:11:00,,0816.3,5.00,0.00,21.6,20.3,00.0,30.7,23.3,09.2,0000.0,0002.10,0004.42,0001.26
2023-02-20 01:12:00,,0816.3,4.97,0.00,21.8,21.6,00.0,30.6,23.7,09.6,0000.0,0002.09,0004.51,0001.26
2023-02-20 01:13:00,,0816.4,5.04,0.00,21.9,22.5,00.0,30.6,24.0,09.7,0000.0,0002.11,0004.44,0001.27
2023-02-20 01:14:00,,0816.2,4.96,0.00,22.0,22.2,00.0,30.7,23.9,09.7,0000.0,0002.12,0004.47,0001.26
2023-02-20 01:15:00,,0816.5,4.99,0.00,22.0,21.7,00.0,30.8,23.8,09.2,0000.0,0002.12,0004.90,0001.25
2023-02-20 01:16:00,,0816.4,4.99,0.00,21.9,21.2,00.0,30.8,23.7,09.5,0000.0,0002.06,0004.75,0001.25
2023-02-20 01:17:00,,0816.4,4.98,0.00,21.9,20.8,00.0,30.8,23.6,09.7,0000.0,0002.07,0004.71,0001.27
2023-02-20 01:18:00,,0816.4,5.01,0.00,21.9,20.5,00.0,30.8,23.5,09.7,0000.0,0002.07,0004.68,0001.29
2023-02-20 01:19:00,,0816.8,5.01,0.00,21.8,20.3,00.0,30.8,23.4,09.8,0000.0,0002.16,0004.96,0001.31
2023-02-20 01:20:00,,0816.7,5.00,0.00,21.8,20.1,00.0,30.8,23.4,09.8,0000.0,0002.21,0004.89,0001.33
2023-02-20 01:21:00,,0816.8,5.00,0.00,21.8,20.1,00.0,30.8,23.4,09.8,0000.0,0002.22,0004.86,0001.34
2023-02-20 01:22:00,,0816.8,5.00,0.00,21.8,20.0,00.0,30.8,23.4,09.6,0000.0,0002.22,0004.84,0001.34
2023-02-20 01:23:00,,0816.8,4.99,0.00,21.7,19.9,00.0,30.8,23.3,09.7,0000.0,0002.20,0004.68,0001.34
2023-02-20 01:24:00,,0816.9,5.00,0.00,21.7,19.8,00.0,30.8,23.3,10.0,0000.0,0002.16,0004.60,0001.34
2023-02-20 01:25:00,,0816.8,4.99,0.00,21.7,19.8,00.0,30.7,23.2,10.2,0000.0,0002.16,0004.67,0001.35
2023-02-20 01:26:00,,0816.8,5.00,0.00,21.6,19.7,00.0,30.7,23.2,10.2,0000.0,0002.21,0004.57,0001.37
2023-02-20 01:27:00,,0816.7,5.00,0.00,21.6,19.6,00.0,30.7,23.1,10.3,0000.0,0002.27,0005.31,0001.39
2023-02-20 01:28:00,,0816.5,5.00,0.00,21.6,19.6,00.0,30.7,23.1,10.1,0000.0,0002.30,0006.15,0001.39
2023-02-20 01:29:00,,0816.6,5.00,0.00,21.5,19.6,00.0,30.6,23.1,09.9,0000.0,0002.33,0006.24,0001.40
2023-02-20 01:30:00,,0816.8,5.01,0.00,21.5,20.0,00.0,30.6,23.2,09.7,0000.0,0002.28,0006.06,0001.38
2023-02-20 01:31:00,,0816.7,4.98,0.00,21.6,21.4,00.0,30.5,23.5,09.8,0000.0,0002.31,0006.15,0001.38
2023-02-20 01:32:00,,0816.8,4.95,0.00,21.8,22.5,00.0,30.5,23.8,09.9,0000.0,0002.35,0006.23,0001.37
2023-02-20 01:33:00,,0816.7,5.02,0.00,21.9,22.4,00.0,30.6,23.9,10.0,0000.0,0002.37,0006.19,0001.39
2023-02-20 01:34:00,,0816.5,5.01,0.00,21.9,21.9,00.0,30.6,23.8,10.1,0000.0,0002.41,0006.32,0001.39
2023-02-20 01:35:00,,0816.8,4.98,0.00,21.9,21.4,00.0,30.7,23.7,10.1,0000.0,0002.41,0006.35,0001.38
2023-02-20 01:36:00,,0816.7,5.01,0.00,21.9,21.1,00.0,30.7,23.7,10.1,0000.0,0002.39,0006.30,0001.37
2023-02-20 01:37:00,,0816.7,5.01,0.00,21.9,20.8,00.0,30.7,23.6,09.9,0000.0,0002.36,0006.33,0001.35
2023-02-20 01:38:00,,0816.7,4.99,0.00,21.9,20.6,00.0,30.7,23.5,09.9,0000.0,0002.31,0005.54,0001.34
2023-02-20 01:39:00,,0816.7,5.02,0.00,21.9,20.4,00.0,30.7,23.5,10.0,0000.0,0002.30,0004.79,0001.34
2023-02-20 01:40:00,,0816.8,5.00,0.00,21.8,20.3,00.0,30.7,23.4,09.9,0000.0,0002.26,0004.65,0001.32
2023-02-20 01:41:00,,0816.8,4.99,0.00,21.8,20.3,00.0,30.7,23.4,10.0,0000.0,0002.24,0004.52,0001.32
2023-02-20 01:42:00,,0816.8,4.98,0.00,21.8,20.2,00.0,30.7,23.3,10.0,0000.0,0002.18,0004.37,0001.31
2023-02-20 01:43:00,,0816.8,4.99,0.00,21.8,20.2,00.0,30.7,23.3,10.1,0000.0,0002.17,0004.31,0001.32
2023-02-20 01:44:00,,0816.9,5.00,0.00,21.7,20.1,00.0,30.7,23.3,10.1,0000.0,0002.15,0004.33,0001.32
2023-02-20 01:45:00,,0816.8,5.00,0.00,21.7,20.0,00.0,30.7,23.3,10.2,0000.0,0002.11,0004.27,0001.31
2023-02-20 01:46:00,,0816.8,5.01,0.00,21.7,20.4,00.0,30.6,23.4,10.2,0000.0,0002.09,0004.16,0001.32
2023-02-20 01:47:00,,0816.9,4.99,0.00,21.8,21.6,00.0,30.6,23.7,09.9,0000.0,0002.06,0004.04,0001.32
2023-02-20 01:48:00,,0816.8,4.97,0.00,21.9,22.7,00.0,30.6,24.0,09.8,0000.0,0002.10,0003.87,0001.33
2023-02-20 01:49:00,,0817.1,5.02,0.00,22.1,22.6,00.0,30.7,24.1,09.7,0000.0,0002.13,0003.79,0001.34
2023-02-20 01:50:00,,0817.0,4.96,0.00,22.1,22.0,00.0,30.7,24.0,09.7,0000.0,0002.15,0003.73,0001.34
2023-02-20 01:51:00,,0816.9,4.98,0.00,22.1,21.5,00.0,30.8,23.9,10.0,0000.0,0002.17,0003.76,0001.34
2023-02-20 01:52:00,,0817.0,5.02,0.00,22.0,21.1,00.0,30.8,23.8,10.0,0000.0,0002.21,0003.87,0001.35
2023-02-20 01:53:00,,0817.0,4.99,0.00,22.0,20.9,00.0,30.8,23.8,09.8,0000.0,0002.22,0004.71,0001.34
2023-02-20 01:54:00,,0817.1,5.00,0.00,22.0,20.7,00.0,30.9,23.7,09.6,0000.0,0002.21,0004.81,0001.33
2023-02-20 01:55:00,,0817.1,5.00,0.00,22.0,20.5,00.0,30.9,23.6,09.8,0000.0,0002.21,0004.82,0001.31
2023-02-20 01:56:00,,0817.2,5.00,0.00,22.0,20.4,00.0,30.9,23.7,09.7,0000.0,0002.21,0004.71,0001.30
2023-02-20 01:57:00,,0817.2,5.02,0.00,22.0,20.4,00.0,30.8,23.6,09.7,0000.0,0002.23,0004.80,0001.30
2023-02-20 01:58:00,,0817.2,4.99,0.00,21.9,20.3,00.0,30.8,23.6,09.6,0000.0,0002.27,0005.04,0001.31
2023-02-20 01:59:00,,0817.1,5.00,0.00,21.9,20.1,00.0,30.8,23.6,09.8,0000.0,0002.23,0005.61,0001.30
